Time,TemperatureF,DewpointF,PressureIn,WindDirection,WindDirectionDegrees,WindSpeedMPH,WindSpeedGustMPH,Humidity,HourlyPrecipIn,Conditions,Clouds,dailyrainin,SoftwareType,DateUTC
2013-02-08 00:00:00,34.7,32.0,30.13,North,0,0.0,0.0,90,0.00,,,0.00,WUHU216HW,2013-02-08 08:00:00,
2013-02-08 00:05:00,34.4,32.0,30.13,North,0,0.0,0.0,91,0.00,,,0.00,WUHU216HW,2013-02-08 08:05:00,
2013-02-08 00:10:00,34.2,31.8,30.14,North,0,0.0,0.0,91,0.00,,,0.00,WUHU216HW,2013-02-08 08:10:00,
2013-02-08 00:15:00,34.2,31.8,30.14,North,0,0.0,0.0,91,0.00,,,0.00,WUHU216HW,2013-02-08 08:15:00,
2013-02-08 00:20:00,34.0,31.6,30.14,North,0,0.0,0.0,91,0.00,,,0.00,WUHU216HW,2013-02-08 08:20:00,
2013-02-08 00:25:00,33.8,31.4,30.14,North,0,0.0,0.0,91,0.00,,,0.00,WUHU216HW,2013-02-08 08:25:00,
2013-02-08 00:30:00,33.8,31.4,30.14,North,0,0.0,0.0,91,0.00,,,0.00,WUHU216HW,2013-02-08 08:30:00,
2013-02-08 00:35:00,33.8,31.7,30.14,North,0,0.0,0.0,92,0.00,,,0.00,WUHU216HW,2013-02-08 08:35:00,
2013-02-08 00:40:00,33.7,31.5,30.14,North,0,0.0,0.0,92,0.00,,,0.00,WUHU216HW,2013-02-08 08:40:00,
2013-02-08 00:45:00,33.7,31.5,30.14,North,0,0.0,0.0,92,0.00,,,0.00,WUHU216HW,2013-02-08 08:45:00,
2013-02-08 00:50:00,33.5,31.3,30.14,North,0,0.0,0.0,92,0.00,,,0.00,WUHU216HW,2013-02-08 08:50:00,
2013-02-08 00:55:00,33.7,31.5,30.14,North,0,0.0,0.0,92,0.00,,,0.00,WUHU216HW,2013-02-08 08:55:00,
2013-02-08 01:00:00,34.0,31.9,30.14,North,0,0.0,0.0,92,0.00,,,0.00,WUHU216HW,2013-02-08 09:00:00,
2013-02-08 01:05:00,34.2,31.8,30.14,North,0,0.0,0.0,91,0.00,,,0.00,WUHU216HW,2013-02-08 09:05:00,
2013-02-08 01:10:00,34.4,32.0,30.14,North,0,0.0,0.0,91,0.00,,,0.00,WUHU216HW,2013-02-08 09:10:00,
2013-02-08 01:15:00,33.8,31.4,30.14,North,0,0.0,0.0,91,0.00,,,0.00,WUHU216HW,2013-02-08 09:15:00,
2013-02-08 01:20:00,33.7,31.2,30.15,North,0,0.0,0.0,91,0.00,,,0.00,WUHU216HW,2013-02-08 09:20:00,
2013-02-08 01:25:00,33.5,31.1,30.15,North,0,0.0,0.0,91,0.00,,,0.00,WUHU216HW,2013-02-08 09:25:00,
2013-02-08 01:30:00,33.3,31.0,30.15,North,0,0.0,0.0,91,0.00,,,0.00,WUHU216HW,2013-02-08 09:30:00,
2013-02-08 01:35:00,33.1,30.8,30.14,North,0,0.0,0.0,91,0.00,,,0.00,WUHU216HW,2013-02-08 09:35:00,
2013-02-08 01:40:00,33.1,31.1,30.15,North,0,0.0,0.0,92,0.00,,,0.00,WUHU216HW,2013-02-08 09:40:00,
2013-02-08 01:45:00,32.9,30.9,30.14,North,0,0.0,0.0,92,0.00,,,0.00,WUHU216HW,2013-02-08 09:45:00,
2013-02-08 01:50:00,32.9,30.9,30.15,North,0,0.0,0.0,92,0.00,,,0.00,WUHU216HW,2013-02-08 09:50:00,
2013-02-08 01:55:00,33.1,31.1,30.15,North,0,0.0,0.0,92,0.00,,,0.00,WUHU216HW,2013-02-08 09:55:00,
2013-02-08 02:00:00,33.1,31.1,30.15,North,0,0.0,0.0,92,0.00,,,0.00,WUHU216HW,2013-02-08 10:00:00,
2013-02-08 02:05:00,33.1,31.1,30.15,North,0,0.0,0.0,92,0.00,,,0.00,WUHU216HW,2013-02-08 10:05:00,
2013-02-08 02:10:00,33.1,31.1,30.15,North,0,0.0,0.0,92,0.00,,,0.00,WUHU216HW,2013-02-08 10:10:00,
2013-02-08 02:15:00,33.5,31.3,30.15,North,0,0.0,0.0,92,0.00,,,0.00,WUHU216HW,2013-02-08 10:15:00,
2013-02-08 02:20:00,33.8,31.7,30.16,SSW,203,4.0,4.0,92,0.00,,,0.00,WUHU216HW,2013-02-08 10:20:00,
2013-02-08 02:25:00,33.3,31.1,30.16,SSW,203,2.7,4.0,92,0.00,,,0.00,WUHU216HW,2013-02-08 10:25:00,
2013-02-08 02:30:00,32.9,30.9,30.16,SSW,203,4.3,4.3,92,0.00,,,0.00,WUHU216HW,2013-02-08 10:30:00,
2013-02-08 02:35:00,33.1,31.1,30.16,North,0,0.0,4.3,92,0.00,,,0.00,WUHU216HW,2013-02-08 10:35:00,
2013-02-08 02:40:00,33.5,31.3,30.16,North,0,0.0,4.3,92,0.00,,,0.00,WUHU216HW,2013-02-08 10:40:00,
2013-02-08 02:45:00,33.5,31.3,30.16,North,0,0.0,0.0,92,0.00,,,0.00,WUHU216HW,2013-02-08 10:45:00,
2013-02-08 02:50:00,33.3,31.0,30.16,North,0,0.0,0.0,91,0.00,,,0.00,WUHU216HW,2013-02-08 10:50:00,
2013-02-08 02:55:00,32.8,30.7,30.16,North,0,0.0,0.0,92,0.00,,,0.00,WUHU216HW,2013-02-08 10:55:00,
2013-02-08 03:00:00,32.6,30.5,30.16,North,0,0.0,0.0,92,0.00,,,0.00,WUHU216HW,2013-02-08 11:00:00,
2013-02-08 03:05:00,32.4,30.3,30.16,North,0,0.0,0.0,92,0.00,,,0.00,WUHU216HW,2013-02-08 11:05:00,
2013-02-08 03:10:00,32.2,30.2,30.16,North,0,0.0,0.0,92,0.00,,,0.00,WUHU216HW,2013-02-08 11:10:00,
2013-02-08 03:15:00,32.2,30.2,30.16,North,0,0.0,0.0,92,0.00,,,0.00,WUHU216HW,2013-02-08 11:15:00,
2013-02-08 03:20:00,32.2,30.4,30.16,North,0,0.0,0.0,93,0.00,,,0.00,WUHU216HW,2013-02-08 11:20:00,
2013-02-08 03:25:00,32.2,30.4,30.16,North,0,0.0,0.0,93,0.00,,,0.00,WUHU216HW,2013-02-08 11:25:00,
2013-02-08 03:30:00,32.0,30.1,30.16,North,0,0.0,0.0,92,0.00,,,0.00,WUHU216HW,2013-02-08 11:30:00,
2013-02-08 03:35:00,32.0,30.1,30.16,North,0,0.0,0.0,92,0.00,,,0.00,WUHU216HW,2013-02-08 11:35:00,
2013-02-08 03:40:00,32.0,30.1,30.16,North,0,0.0,0.0,92,0.00,,,0.00,WUHU216HW,2013-02-08 11:40:00,
2013-02-08 03:45:00,32.0,30.1,30.16,North,0,0.0,0.0,92,0.00,,,0.00,WUHU216HW,2013-02-08 11:45:00,
2013-02-08 03:50:00,32.2,30.2,30.16,North,0,0.0,0.0,92,0.00,,,0.00,WUHU216HW,2013-02-08 11:50:00,
2013-02-08 03:55:00,32.8,31.0,30.16,North,0,0.0,0.0,93,0.00,,,0.00,WUHU216HW,2013-02-08 11:55:00,
2013-02-08 04:00:00,32.9,30.9,30.16,North,0,0.0,0.0,92,0.00,,,0.00,WUHU216HW,2013-02-08 12:00:00,
2013-02-08 04:05:00,32.9,30.9,30.16,North,0,0.0,0.0,92,0.00,,,0.00,WUHU216HW,2013-02-08 12:05:00,
2013-02-08 04:10:00,32.4,30.3,30.16,North,0,0.0,0.0,92,0.00,,,0.00,WUHU216HW,2013-02-08 12:10:00,
2013-02-08 04:15:00,32.0,30.1,30.16,North,0,0.0,0.0,92,0.00,,,0.00,WUHU216HW,2013-02-08 12:15:00,
2013-02-08 04:20:00,32.0,30.2,30.17,North,0,0.0,0.0,93,0.00,,,0.00,WUHU216HW,2013-02-08 12:20:00,
2013-02-08 04:25:00,31.9,29.9,30.17,North,0,0.0,0.0,92,0.00,,,0.00,WUHU216HW,2013-02-08 12:25:00,
2013-02-08 04:30:00,31.9,29.9,30.17,North,0,0.0,0.0,92,0.00,,,0.00,WUHU216HW,2013-02-08 12:30:00,
2013-02-08 04:35:00,31.7,29.7,30.18,North,0,0.0,0.0,92,0.00,,,0.00,WUHU216HW,2013-02-08 12:35:00,
2013-02-08 04:40:00,31.7,29.7,30.18,North,0,0.0,0.0,92,0.00,,,0.00,WUHU216HW,2013-02-08 12:40:00,
2013-02-08 04:45:00,31.7,29.7,30.18,North,0,0.0,0.0,92,0.00,,,0.00,WUHU216HW,2013-02-08 12:45:00,
2013-02-08 04:50:00,31.7,29.7,30.18,North,0,0.0,0.0,92,0.00,,,0.00,WUHU216HW,2013-02-08 12:50:00,
2013-02-08 04:55:00,31.5,29.5,30.18,North,0,0.0,0.0,92,0.00,,,0.00,WUHU216HW,2013-02-08 12:55:00,
2013-02-08 05:00:00,31.5,29.5,30.18,North,0,0.0,0.0,92,0.00,,,0.00,WUHU216HW,2013-02-08 13:00:00,
2013-02-08 05:05:00,31.7,29.9,30.18,North,0,0.0,0.0,93,0.00,,,0.00,WUHU216HW,2013-02-08 13:05:00,
2013-02-08 05:10:00,32.0,30.1,30.19,North,0,0.0,0.0,92,0.00,,,0.00,WUHU216HW,2013-02-08 13:10:00,
2013-02-08 05:15:00,32.2,30.2,30.19,North,0,0.0,0.0,92,0.00,,,0.00,WUHU216HW,2013-02-08 13:15:00,
2013-02-08 05:20:00,32.4,30.6,30.19,North,0,0.0,0.0,93,0.00,,,0.00,WUHU216HW,2013-02-08 13:20:00,
2013-02-08 05:25:00,32.0,29.8,30.19,North,0,0.0,0.0,91,0.00,,,0.00,WUHU216HW,2013-02-08 13:25:00,
2013-02-08 05:30:00,31.9,29.9,30.19,North,0,0.0,0.0,92,0.00,,,0.00,WUHU216HW,2013-02-08 13:30:00,
2013-02-08 05:35:00,31.5,29.5,30.19,North,0,0.0,0.0,92,0.00,,,0.00,WUHU216HW,2013-02-08 13:35:00,
2013-02-08 05:40:00,31.3,29.4,30.19,North,0,0.0,0.0,92,0.00,,,0.00,WUHU216HW,2013-02-08 13:40:00,
2013-02-08 05:45:00,31.3,29.4,30.19,North,0,0.0,0.0,92,0.00,,,0.00,WUHU216HW,2013-02-08 13:45:00,
2013-02-08 05:50:00,31.3,29.4,30.19,North,0,0.0,0.0,92,0.00,,,0.00,WUHU216HW,2013-02-08 13:50:00,
2013-02-08 05:55:00,31.1,29.2,30.19,North,0,0.0,0.0,92,0.00,,,0.00,WUHU216HW,2013-02-08 13:55:00,
2013-02-08 06:00:00,31.3,29.4,30.19,North,0,0.0,0.0,92,0.00,,,0.00,WUHU216HW,2013-02-08 14:00:00,
2013-02-08 06:05:00,31.5,29.5,30.19,North,0,0.0,0.0,92,0.00,,,0.00,WUHU216HW,2013-02-08 14:05:00,
2013-02-08 06:10:00,31.7,29.9,30.19,North,0,0.0,0.0,93,0.00,,,0.00,WUHU216HW,2013-02-08 14:10:00,
2013-02-08 06:15:00,31.9,30.1,30.19,North,0,0.0,0.0,93,0.00,,,0.00,WUHU216HW,2013-02-08 14:15:00,
2013-02-08 06:20:00,32.0,30.2,30.19,North,0,0.0,0.0,93,0.00,,,0.00,WUHU216HW,2013-02-08 14:20:00,
2013-02-08 06:25:00,32.4,30.6,30.19,SSW,203,6.0,7.6,93,0.00,,,0.00,WUHU216HW,2013-02-08 14:25:00,
2013-02-08 06:30:00,32.4,30.6,30.19,South,180,4.5,7.6,93,0.00,,,0.00,WUHU216HW,2013-02-08 14:30:00,
2013-02-08 06:35:00,32.4,30.6,30.19,SSW,203,5.4,6.5,93,0.00,,,0.00,WUHU216HW,2013-02-08 14:35:00,
2013-02-08 06:40:00,32.6,30.8,30.19,SSW,203,3.4,5.4,93,0.00,,,0.00,WUHU216HW,2013-02-08 14:40:00,
2013-02-08 06:45:00,32.6,30.8,30.19,SSW,203,1.8,5.4,93,0.00,,,0.00,WUHU216HW,2013-02-08 14:45:00,
2013-02-08 06:50:00,32.6,30.8,30.20,SSW,203,1.8,5.4,93,0.00,,,0.00,WUHU216HW,2013-02-08 14:50:00,
2013-02-08 06:55:00,32.8,31.0,30.19,SSW,203,4.0,4.0,93,0.00,,,0.00,WUHU216HW,2013-02-08 14:55:00,
2013-02-08 07:00:00,32.8,31.0,30.20,SSW,203,4.7,4.7,93,0.00,,,0.00,WUHU216HW,2013-02-08 15:00:00,
2013-02-08 07:05:00,32.8,31.0,30.20,South,180,4.7,4.7,93,0.00,,,0.00,WUHU216HW,2013-02-08 15:05:00,
2013-02-08 07:10:00,32.9,31.2,30.20,SSW,203,4.3,4.7,93,0.00,,,0.00,WUHU216HW,2013-02-08 15:10:00,
2013-02-08 07:15:00,33.1,31.3,30.20,SSW,203,4.0,5.4,93,0.00,,,0.00,WUHU216HW,2013-02-08 15:15:00,
2013-02-08 07:20:00,33.3,31.4,30.20,SSW,203,5.4,5.4,93,0.00,,,0.00,WUHU216HW,2013-02-08 15:20:00,
2013-02-08 07:25:00,33.5,31.6,30.21,South,180,6.0,6.0,93,0.00,,,0.00,WUHU216HW,2013-02-08 15:25:00,
2013-02-08 07:30:00,33.5,31.6,30.21,SSW,203,4.7,6.0,93,0.00,,,0.00,WUHU216HW,2013-02-08 15:30:00,
2013-02-08 07:35:00,33.5,31.6,30.21,South,180,4.7,6.0,93,0.00,,,0.00,WUHU216HW,2013-02-08 15:35:00,
2013-02-08 07:40:00,33.8,32.2,30.21,SSW,203,4.0,5.8,94,0.00,,,0.00,WUHU216HW,2013-02-08 15:40:00,
2013-02-08 07:45:00,33.8,32.2,30.21,SSW,203,3.4,5.8,94,0.00,,,0.00,WUHU216HW,2013-02-08 15:45:00,
2013-02-08 07:50:00,34.2,32.6,30.21,South,180,5.8,5.8,94,0.00,,,0.00,WUHU216HW,2013-02-08 15:50:00,
2013-02-08 07:55:00,34.4,32.8,30.22,SSW,203,3.8,5.8,94,0.00,,,0.00,WUHU216HW,2013-02-08 15:55:00,
2013-02-08 08:00:00,34.6,32.9,30.22,SSW,203,4.9,4.9,94,0.00,,,0.00,WUHU216HW,2013-02-08 16:00:00,
2013-02-08 08:05:00,34.7,33.1,30.21,SSW,203,4.7,5.1,94,0.00,,,0.00,WUHU216HW,2013-02-08 16:05:00,
2013-02-08 08:10:00,34.9,33.3,30.22,SSW,203,4.0,5.4,94,0.00,,,0.00,WUHU216HW,2013-02-08 16:10:00,
2013-02-08 08:15:00,34.9,33.3,30.22,SSW,203,4.3,5.4,94,0.00,,,0.00,WUHU216HW,2013-02-08 16:15:00,
2013-02-08 08:20:00,34.9,33.3,30.22,SSW,203,3.6,5.1,94,0.00,,,0.00,WUHU216HW,2013-02-08 16:20:00,
2013-02-08 08:25:00,34.9,33.3,30.22,SSW,203,3.4,4.0,94,0.00,,,0.00,WUHU216HW,2013-02-08 16:25:00,
2013-02-08 08:30:00,35.1,33.5,30.22,SSW,203,2.9,3.6,94,0.00,,,0.00,WUHU216HW,2013-02-08 16:30:00,
2013-02-08 08:35:00,35.1,33.5,30.22,South,180,0.0,3.8,94,0.00,,,0.00,WUHU216HW,2013-02-08 16:35:00,
2013-02-08 08:40:00,35.3,33.7,30.22,SSE,158,0.7,3.8,94,0.00,,,0.00,WUHU216HW,2013-02-08 16:40:00,
2013-02-08 08:45:00,35.5,33.8,30.22,SSW,203,2.5,2.5,94,0.00,,,0.00,WUHU216HW,2013-02-08 16:45:00,
2013-02-08 08:50:00,35.6,34.0,30.23,SSW,203,2.2,2.9,94,0.00,,,0.00,WUHU216HW,2013-02-08 16:50:00,
2013-02-08 08:55:00,35.8,34.2,30.23,SSW,203,1.3,2.9,94,0.00,,,0.00,WUHU216HW,2013-02-08 16:55:00,
2013-02-08 09:00:00,36.4,34.7,30.23,SE,135,0.7,2.2,94,0.00,,,0.00,WUHU216HW,2013-02-08 17:00:00,
2013-02-08 09:05:00,36.9,35.3,30.23,SE,135,0.4,1.1,94,0.00,,,0.00,WUHU216HW,2013-02-08 17:05:00,
2013-02-08 09:10:00,37.4,35.8,30.23,NE,45,0.4,0.7,94,0.00,,,0.00,WUHU216HW,2013-02-08 17:10:00,
2013-02-08 09:15:00,38.0,36.4,30.23,ENE,68,0.0,0.7,94,0.01,,,0.00,WUHU216HW,2013-02-08 17:15:00,
2013-02-08 09:20:00,38.5,36.9,30.23,South,180,1.8,1.8,94,0.01,,,0.01,WUHU216HW,2013-02-08 17:20:00,
2013-02-08 09:25:00,39.4,37.8,30.23,South,180,3.1,4.7,94,0.01,,,0.01,WUHU216HW,2013-02-08 17:25:00,
2013-02-08 09:30:00,39.8,38.2,30.23,South,180,0.2,4.7,94,0.01,,,0.01,WUHU216HW,2013-02-08 17:30:00,
2013-02-08 09:35:00,40.1,38.5,30.23,NNE,23,0.4,2.9,94,0.01,,,0.01,WUHU216HW,2013-02-08 17:35:00,
2013-02-08 09:40:00,40.5,39.2,30.23,SW,225,0.9,0.9,95,0.01,,,0.01,WUHU216HW,2013-02-08 17:40:00,
2013-02-08 09:45:00,41.4,39.8,30.23,South,180,0.7,2.0,94,0.01,,,0.01,WUHU216HW,2013-02-08 17:45:00,
2013-02-08 09:50:00,41.9,40.3,30.24,NE,45,1.8,2.0,94,0.01,,,0.01,WUHU216HW,2013-02-08 17:50:00,
2013-02-08 09:55:00,42.3,40.4,30.24,North,0,4.7,4.7,93,0.01,,,0.01,WUHU216HW,2013-02-08 17:55:00,
2013-02-08 10:00:00,42.8,40.4,30.24,NNE,23,3.6,4.7,91,0.01,,,0.01,WUHU216HW,2013-02-08 18:00:00,
2013-02-08 10:05:00,43.2,40.5,30.24,North,0,3.4,4.7,90,0.01,,,0.01,WUHU216HW,2013-02-08 18:05:00,
2013-02-08 10:10:00,43.4,40.7,30.24,NNE,23,3.4,3.6,90,0.01,,,0.01,WUHU216HW,2013-02-08 18:10:00,
2013-02-08 10:15:00,43.7,40.4,30.24,NNE,23,4.0,4.0,88,0.00,,,0.01,WUHU216HW,2013-02-08 18:15:00,
2013-02-08 10:20:00,43.9,41.0,30.24,North,0,5.1,5.1,89,0.00,,,0.01,WUHU216HW,2013-02-08 18:20:00,
2013-02-08 10:25:00,44.3,41.0,30.24,North,0,4.9,5.8,88,0.00,,,0.01,WUHU216HW,2013-02-08 18:25:00,
2013-02-08 10:30:00,44.3,41.0,30.24,NNW,338,2.2,5.8,88,0.00,,,0.01,WUHU216HW,2013-02-08 18:30:00,
2013-02-08 10:35:00,44.6,41.3,30.24,NNE,23,4.7,4.7,88,0.00,,,0.01,WUHU216HW,2013-02-08 18:35:00,
2013-02-08 10:41:00,44.6,41.1,30.24,North,0,3.6,4.7,87,0.00,,,0.01,WUHU216HW,2013-02-08 18:41:00,
2013-02-08 10:46:00,44.8,40.9,30.24,NNE,23,1.8,4.7,86,0.00,,,0.01,WUHU216HW,2013-02-08 18:46:00,
2013-02-08 10:51:00,44.8,41.2,30.24,NNE,23,2.9,3.6,87,0.00,,,0.01,WUHU216HW,2013-02-08 18:51:00,
2013-02-08 10:56:00,45.0,41.0,30.24,North,0,1.8,4.0,86,0.00,,,0.01,WUHU216HW,2013-02-08 18:56:00,
2013-02-08 11:01:00,45.0,41.0,30.24,NNE,23,2.5,4.0,86,0.00,,,0.01,WUHU216HW,2013-02-08 19:01:00,
2013-02-08 11:06:00,45.0,40.8,30.24,North,0,2.5,2.5,85,0.00,,,0.01,WUHU216HW,2013-02-08 19:06:00,
2013-02-08 11:11:00,44.8,40.6,30.24,NNE,23,2.5,2.7,85,0.00,,,0.01,WUHU216HW,2013-02-08 19:11:00,
2013-02-08 11:16:00,44.6,40.4,30.24,North,0,2.5,4.0,85,0.00,,,0.01,WUHU216HW,2013-02-08 19:16:00,
2013-02-08 11:21:00,44.6,40.4,30.24,NNE,23,4.5,4.7,85,0.00,,,0.01,WUHU216HW,2013-02-08 19:21:00,
2013-02-08 11:25:00,44.8,40.6,30.24,North,0,3.6,6.3,85,0.00,,,0.01,WUHU216HW,2013-02-08 19:25:00,
2013-02-08 11:30:00,44.6,40.2,30.24,North,0,2.0,6.3,84,0.00,,,0.01,WUHU216HW,2013-02-08 19:30:00,
2013-02-08 11:35:00,45.0,40.5,30.24,NNE,23,4.0,4.7,84,0.00,,,0.01,WUHU216HW,2013-02-08 19:35:00,
2013-02-08 11:40:00,45.4,40.9,30.24,North,0,5.4,5.4,84,0.00,,,0.01,WUHU216HW,2013-02-08 19:40:00,
2013-02-08 11:45:00,46.1,41.2,30.24,NNE,23,2.5,5.4,83,0.00,,,0.01,WUHU216HW,2013-02-08 19:45:00,
2013-02-08 11:50:00,46.4,41.3,30.24,North,0,3.8,3.8,82,0.00,,,0.01,WUHU216HW,2013-02-08 19:50:00,
2013-02-08 11:55:00,46.4,41.3,30.24,NNE,23,4.0,4.0,82,0.00,,,0.01,WUHU216HW,2013-02-08 19:55:00,
2013-02-08 12:00:00,46.8,41.3,30.23,North,0,2.9,5.1,81,0.00,,,0.01,WUHU216HW,2013-02-08 20:00:00,
2013-02-08 12:05:00,46.8,41.3,30.23,North,0,1.1,5.1,81,0.00,,,0.01,WUHU216HW,2013-02-08 20:05:00,
2013-02-08 12:10:00,47.2,41.7,30.23,ESE,113,1.6,2.7,81,0.00,,,0.01,WUHU216HW,2013-02-08 20:10:00,
2013-02-08 12:15:00,47.3,41.5,30.23,North,0,3.1,3.1,80,0.00,,,0.01,WUHU216HW,2013-02-08 20:15:00,
2013-02-08 12:20:00,47.5,41.7,30.23,NE,45,2.2,3.1,80,0.00,,,0.01,WUHU216HW,2013-02-08 20:20:00,
2013-02-08 12:25:00,48.1,41.5,30.23,NNE,23,4.0,4.9,78,0.00,,,0.01,WUHU216HW,2013-02-08 20:25:00,
2013-02-08 12:30:00,47.9,41.3,30.23,North,0,4.0,4.9,78,0.00,,,0.01,WUHU216HW,2013-02-08 20:30:00,
2013-02-08 12:35:00,47.9,41.3,30.23,North,0,4.0,4.0,78,0.00,,,0.01,WUHU216HW,2013-02-08 20:35:00,
2013-02-08 12:40:00,47.9,41.7,30.23,North,0,4.9,4.9,79,0.00,,,0.01,WUHU216HW,2013-02-08 20:40:00,
2013-02-08 12:45:00,47.7,41.1,30.23,North,0,2.7,4.9,78,0.00,,,0.01,WUHU216HW,2013-02-08 20:45:00,
2013-02-08 12:50:00,47.5,41.0,30.22,North,0,1.8,4.9,78,0.00,,,0.01,WUHU216HW,2013-02-08 20:50:00,
2013-02-08 12:55:00,47.7,41.1,30.22,NNE,23,2.5,3.4,78,0.00,,,0.01,WUHU216HW,2013-02-08 20:55:00,
2013-02-08 13:00:00,47.5,41.0,30.22,NNE,23,1.1,2.5,78,0.00,,,0.01,WUHU216HW,2013-02-08 21:00:00,
2013-02-08 13:05:00,47.7,41.1,30.22,North,0,2.5,2.9,78,0.00,,,0.01,WUHU216HW,2013-02-08 21:05:00,
2013-02-08 13:10:00,47.5,41.0,30.22,North,0,1.6,2.9,78,0.00,,,0.01,WUHU216HW,2013-02-08 21:10:00,
2013-02-08 13:15:00,47.7,41.5,30.22,North,0,1.3,2.2,79,0.00,,,0.01,WUHU216HW,2013-02-08 21:15:00,
2013-02-08 13:20:00,47.7,41.1,30.22,NNE,23,1.1,1.6,78,0.00,,,0.01,WUHU216HW,2013-02-08 21:20:00,
2013-02-08 13:25:00,47.7,41.5,30.22,North,0,1.1,1.6,79,0.00,,,0.01,WUHU216HW,2013-02-08 21:25:00,
2013-02-08 13:30:00,47.5,41.0,30.22,NNE,23,0.9,1.6,78,0.00,,,0.01,WUHU216HW,2013-02-08 21:30:00,
2013-02-08 13:35:00,47.5,41.0,30.22,NNE,23,1.1,1.8,78,0.00,,,0.01,WUHU216HW,2013-02-08 21:35:00,
2013-02-08 13:40:00,47.7,41.1,30.22,North,0,2.2,2.2,78,0.00,,,0.01,WUHU216HW,2013-02-08 21:40:00,
2013-02-08 13:45:00,47.7,40.8,30.22,North,0,1.6,2.2,77,0.00,,,0.01,WUHU216HW,2013-02-08 21:45:00,
2013-02-08 13:50:00,47.5,41.0,30.22,North,0,0.7,2.5,78,0.00,,,0.01,WUHU216HW,2013-02-08 21:50:00,
2013-02-08 13:55:00,47.3,40.5,30.22,NNE,23,1.8,2.5,77,0.00,,,0.01,WUHU216HW,2013-02-08 21:55:00,
2013-02-08 14:00:00,47.2,40.0,30.22,North,0,2.7,2.7,76,0.00,,,0.01,WUHU216HW,2013-02-08 22:00:00,
2013-02-08 14:05:00,47.2,40.3,30.22,North,0,2.2,2.7,77,0.00,,,0.01,WUHU216HW,2013-02-08 22:05:00,
2013-02-08 14:10:00,47.0,40.5,30.22,North,0,2.2,2.7,78,0.00,,,0.01,WUHU216HW,2013-02-08 22:10:00,
2013-02-08 14:15:00,47.2,40.7,30.22,North,0,2.5,2.5,78,0.00,,,0.01,WUHU216HW,2013-02-08 22:15:00,
2013-02-08 14:20:00,47.2,40.7,30.21,North,0,2.5,2.5,78,0.00,,,0.01,WUHU216HW,2013-02-08 22:20:00,
2013-02-08 14:25:00,47.0,40.1,30.22,NNW,338,0.4,2.5,77,0.00,,,0.01,WUHU216HW,2013-02-08 22:25:00,
2013-02-08 14:30:00,46.6,40.1,30.22,North,0,1.3,2.2,78,0.00,,,0.01,WUHU216HW,2013-02-08 22:30:00,
2013-02-08 14:35:00,46.6,39.8,30.22,NNE,23,2.5,2.5,77,0.00,,,0.01,WUHU216HW,2013-02-08 22:35:00,
2013-02-08 14:40:00,46.6,40.1,30.22,North,0,1.8,2.5,78,0.00,,,0.01,WUHU216HW,2013-02-08 22:40:00,
2013-02-08 14:45:00,46.6,39.8,30.22,North,0,2.2,2.9,77,0.00,,,0.01,WUHU216HW,2013-02-08 22:45:00,
2013-02-08 14:50:00,46.6,39.8,30.22,NNE,23,1.1,2.9,77,0.00,,,0.01,WUHU216HW,2013-02-08 22:50:00,
2013-02-08 14:55:00,46.6,39.8,30.22,North,0,1.6,2.2,77,0.00,,,0.01,WUHU216HW,2013-02-08 22:55:00,
2013-02-08 15:00:00,46.8,40.3,30.22,North,0,0.9,1.8,78,0.00,,,0.01,WUHU216HW,2013-02-08 23:00:00,
2013-02-08 15:05:00,46.8,40.0,30.22,NNE,23,1.3,1.8,77,0.00,,,0.01,WUHU216HW,2013-02-08 23:05:00,
2013-02-08 15:10:00,46.8,40.3,30.22,North,0,1.1,1.3,78,0.00,,,0.01,WUHU216HW,2013-02-08 23:10:00,
2013-02-08 15:15:00,47.0,40.1,30.22,NE,45,0.7,1.3,77,0.00,,,0.01,WUHU216HW,2013-02-08 23:15:00,
2013-02-08 15:21:00,47.2,40.7,30.22,NNE,23,1.8,1.8,78,0.00,,,0.01,WUHU216HW,2013-02-08 23:21:00,
2013-02-08 15:26:00,47.2,40.3,30.22,NNE,23,1.1,1.8,77,0.00,,,0.01,WUHU216HW,2013-02-08 23:26:00,
2013-02-08 15:31:00,47.2,40.0,30.22,North,0,1.8,1.8,76,0.00,,,0.01,WUHU216HW,2013-02-08 23:31:00,
2013-02-08 15:36:00,47.0,40.1,30.22,NNE,23,0.4,1.8,77,0.00,,,0.01,WUHU216HW,2013-02-08 23:36:00,
2013-02-08 15:41:00,47.0,40.5,30.22,NNE,23,0.0,1.1,78,0.00,,,0.01,WUHU216HW,2013-02-08 23:41:00,
2013-02-08 15:46:00,47.2,40.7,30.22,NE,45,0.0,0.4,78,0.00,,,0.01,WUHU216HW,2013-02-08 23:46:00,
2013-02-08 15:51:00,47.2,40.7,30.22,NNW,338,0.7,0.7,78,0.00,,,0.01,WUHU216HW,2013-02-08 23:51:00,
2013-02-08 15:56:00,47.3,40.8,30.22,NW,315,0.0,0.7,78,0.00,,,0.01,WUHU216HW,2013-02-08 23:56:00,
2013-02-08 16:01:00,47.3,40.8,30.22,West,270,0.4,0.7,78,0.00,,,0.01,WUHU216HW,2013-02-09 00:01:00,
2013-02-08 16:05:00,47.5,41.0,30.22,South,180,0.0,1.1,78,0.00,,,0.01,WUHU216HW,2013-02-09 00:05:00,
2013-02-08 16:11:00,47.5,41.0,30.22,SW,225,0.0,1.1,78,0.00,,,0.01,WUHU216HW,2013-02-09 00:11:00,
2013-02-08 16:15:00,47.5,41.0,30.22,SW,225,0.0,0.0,78,0.00,,,0.01,WUHU216HW,2013-02-09 00:15:00,
2013-02-08 16:20:00,47.3,40.8,30.22,WSW,248,0.0,0.0,78,0.00,,,0.01,WUHU216HW,2013-02-09 00:20:00,
2013-02-08 16:25:00,47.2,40.7,30.22,WSW,248,0.0,0.4,78,0.00,,,0.01,WUHU216HW,2013-02-09 00:25:00,
2013-02-08 16:30:00,47.2,41.0,30.22,WSW,248,0.0,0.4,79,0.00,,,0.01,WUHU216HW,2013-02-09 00:30:00,
2013-02-08 16:36:00,47.2,41.0,30.22,South,180,1.8,1.8,79,0.00,,,0.01,WUHU216HW,2013-02-09 00:36:00,
2013-02-08 16:40:00,47.2,41.3,30.22,SE,135,0.9,1.8,80,0.00,,,0.01,WUHU216HW,2013-02-09 00:40:00,
2013-02-08 16:45:00,47.2,41.3,30.22,WSW,248,0.0,1.8,80,0.00,,,0.01,WUHU216HW,2013-02-09 00:45:00,
2013-02-08 16:50:00,47.2,41.0,30.22,WSW,248,0.0,0.9,79,0.00,,,0.01,WUHU216HW,2013-02-09 00:50:00,
2013-02-08 16:55:00,47.0,40.5,30.22,South,180,0.2,0.2,78,0.00,,,0.01,WUHU216HW,2013-02-09 00:55:00,
2013-02-08 17:00:00,46.8,40.3,30.22,WSW,248,0.0,0.2,78,0.00,,,0.01,WUHU216HW,2013-02-09 01:00:00,
2013-02-08 17:05:00,46.6,40.5,30.22,SE,135,0.7,0.7,79,0.00,,,0.01,WUHU216HW,2013-02-09 01:05:00,
2013-02-08 17:10:00,46.4,40.3,30.22,SE,135,0.9,0.9,79,0.00,,,0.01,WUHU216HW,2013-02-09 01:10:00,
2013-02-08 17:15:00,46.4,40.3,30.22,ESE,113,0.4,0.9,79,0.00,,,0.01,WUHU216HW,2013-02-09 01:15:00,
2013-02-08 17:20:00,46.1,40.3,30.22,SSE,158,0.4,0.9,80,0.00,,,0.01,WUHU216HW,2013-02-09 01:20:00,
2013-02-08 17:25:00,46.1,40.3,30.22,SE,135,0.0,0.7,80,0.00,,,0.01,WUHU216HW,2013-02-09 01:25:00,
2013-02-08 17:30:00,45.9,40.1,30.22,SSE,158,0.2,0.4,80,0.00,,,0.01,WUHU216HW,2013-02-09 01:30:00,
2013-02-08 17:35:00,45.7,40.0,30.22,SSE,158,0.7,0.9,80,0.00,,,0.01,WUHU216HW,2013-02-09 01:35:00,
2013-02-08 17:40:00,45.4,39.9,30.22,SSE,158,0.7,0.9,81,0.00,,,0.01,WUHU216HW,2013-02-09 01:40:00,
2013-02-08 17:45:00,45.0,39.5,30.22,SW,225,0.0,0.7,81,0.00,,,0.01,WUHU216HW,2013-02-09 01:45:00,
2013-02-08 17:50:00,44.8,39.3,30.22,South,180,0.0,0.7,81,0.00,,,0.01,WUHU216HW,2013-02-09 01:50:00,
2013-02-08 17:55:00,44.5,39.0,30.22,SSW,203,0.0,0.2,81,0.00,,,0.01,WUHU216HW,2013-02-09 01:55:00,
2013-02-08 18:00:00,44.3,38.8,30.22,SSE,158,1.1,1.1,81,0.00,,,0.01,WUHU216HW,2013-02-09 02:00:00,
2013-02-08 18:05:00,43.9,38.8,30.22,SSE,158,0.7,1.1,82,0.00,,,0.01,WUHU216HW,2013-02-09 02:05:00,
2013-02-08 18:10:00,43.7,38.6,30.22,SE,135,0.0,1.1,82,0.00,,,0.01,WUHU216HW,2013-02-09 02:10:00,
2013-02-08 18:15:00,43.6,38.4,30.22,SE,135,0.9,0.9,82,0.00,,,0.01,WUHU216HW,2013-02-09 02:15:00,
2013-02-08 18:20:00,43.6,38.7,30.22,SE,135,0.2,0.9,83,0.00,,,0.01,WUHU216HW,2013-02-09 02:20:00,
2013-02-08 18:25:00,43.2,38.3,30.22,SE,135,0.4,0.9,83,0.00,,,0.01,WUHU216HW,2013-02-09 02:25:00,
2013-02-08 18:30:00,43.0,38.2,30.22,ESE,113,0.7,0.7,83,0.00,,,0.01,WUHU216HW,2013-02-09 02:30:00,
2013-02-08 18:35:00,43.0,38.2,30.22,ESE,113,0.0,0.7,83,0.00,,,0.01,WUHU216HW,2013-02-09 02:35:00,
2013-02-08 18:40:00,42.8,38.0,30.22,SSE,158,0.0,0.7,83,0.00,,,0.01,WUHU216HW,2013-02-09 02:40:00,
2013-02-08 18:45:00,42.7,38.2,30.22,SSE,158,0.0,0.0,84,0.00,,,0.01,WUHU216HW,2013-02-09 02:45:00,
2013-02-08 18:50:00,42.5,38.0,30.22,SSW,203,1.1,1.1,84,0.00,,,0.01,WUHU216HW,2013-02-09 02:50:00,
2013-02-08 18:56:00,42.3,38.1,30.22,SW,225,1.8,1.8,85,0.00,,,0.01,WUHU216HW,2013-02-09 02:56:00,
2013-02-08 19:01:00,42.1,37.9,30.22,SSW,203,1.1,1.8,85,0.00,,,0.01,WUHU216HW,2013-02-09 03:01:00,
2013-02-08 19:06:00,41.9,37.7,30.22,SSW,203,1.3,1.8,85,0.00,,,0.01,WUHU216HW,2013-02-09 03:06:00,
2013-02-08 19:11:00,41.8,37.5,30.22,SSW,203,1.1,1.8,85,0.00,,,0.01,WUHU216HW,2013-02-09 03:11:00,
2013-02-08 19:16:00,41.6,37.1,30.22,SSW,203,0.9,1.8,84,0.00,,,0.01,WUHU216HW,2013-02-09 03:16:00,
2013-02-08 19:20:00,41.4,37.2,30.22,SSW,203,0.2,1.3,85,0.00,,,0.01,WUHU216HW,2013-02-09 03:20:00,
2013-02-08 19:25:00,41.4,37.2,30.22,SSW,203,0.7,1.1,85,0.00,,,0.01,WUHU216HW,2013-02-09 03:25:00,
2013-02-08 19:30:00,41.4,37.2,30.23,SW,225,0.4,1.6,85,0.00,,,0.01,WUHU216HW,2013-02-09 03:30:00,
2013-02-08 19:35:00,41.4,37.2,30.23,SW,225,0.4,1.6,85,0.00,,,0.01,WUHU216HW,2013-02-09 03:35:00,
2013-02-08 19:40:00,41.4,37.4,30.23,SW,225,0.9,0.9,86,0.00,,,0.01,WUHU216HW,2013-02-09 03:40:00,
2013-02-08 19:45:00,41.4,37.4,30.23,South,180,1.1,1.1,86,0.00,,,0.01,WUHU216HW,2013-02-09 03:45:00,
2013-02-08 19:50:00,41.4,37.4,30.22,SSE,158,0.4,1.1,86,0.00,,,0.01,WUHU216HW,2013-02-09 03:50:00,
2013-02-08 19:55:00,41.2,37.3,30.23,South,180,0.0,1.1,86,0.00,,,0.01,WUHU216HW,2013-02-09 03:55:00,
2013-02-08 20:00:00,41.2,37.3,30.23,South,180,0.9,0.9,86,0.00,,,0.01,WUHU216HW,2013-02-09 04:00:00,
2013-02-08 20:05:00,41.2,37.3,30.23,SSW,203,1.1,1.1,86,0.00,,,0.01,WUHU216HW,2013-02-09 04:05:00,
2013-02-08 20:10:00,41.2,37.3,30.23,SSW,203,0.2,1.1,86,0.00,,,0.01,WUHU216HW,2013-02-09 04:10:00,
2013-02-08 20:15:00,41.2,37.3,30.23,SSW,203,0.2,1.3,86,0.00,,,0.01,WUHU216HW,2013-02-09 04:15:00,
2013-02-08 20:21:00,41.2,37.3,30.22,SSW,203,1.1,1.3,86,0.00,,,0.01,WUHU216HW,2013-02-09 04:21:00,
2013-02-08 20:26:00,41.2,37.6,30.23,SSW,203,0.2,1.1,87,0.00,,,0.01,WUHU216HW,2013-02-09 04:26:00,
2013-02-08 20:31:00,41.0,37.5,30.22,SSE,158,0.7,1.1,87,0.00,,,0.01,WUHU216HW,2013-02-09 04:31:00,
2013-02-08 20:35:00,41.0,37.5,30.23,South,180,0.0,1.1,87,0.00,,,0.01,WUHU216HW,2013-02-09 04:35:00,
2013-02-08 20:41:00,41.0,37.5,30.23,SSE,158,0.0,1.1,87,0.00,,,0.01,WUHU216HW,2013-02-09 04:41:00,
2013-02-08 20:46:00,41.0,37.5,30.23,SSW,203,0.4,1.1,87,0.00,,,0.01,WUHU216HW,2013-02-09 04:46:00,
2013-02-08 20:51:00,41.0,37.5,30.23,SE,135,0.2,0.9,87,0.00,,,0.01,WUHU216HW,2013-02-09 04:51:00,
2013-02-08 20:56:00,41.0,37.5,30.23,SE,135,0.0,0.9,87,0.00,,,0.01,WUHU216HW,2013-02-09 04:56:00,
2013-02-08 21:00:00,41.0,37.5,30.23,SSW,203,1.6,1.6,87,0.00,,,0.01,WUHU216HW,2013-02-09 05:00:00,
2013-02-08 21:05:00,41.0,37.5,30.23,SSW,203,1.6,1.8,87,0.00,,,0.01,WUHU216HW,2013-02-09 05:05:00,
2013-02-08 21:10:00,41.0,37.5,30.23,SSW,203,1.1,1.8,87,0.00,,,0.01,WUHU216HW,2013-02-09 05:10:00,
2013-02-08 21:15:00,40.9,37.3,30.22,SW,225,0.9,1.8,87,0.00,,,0.01,WUHU216HW,2013-02-09 05:15:00,
2013-02-08 21:20:00,40.9,37.3,30.22,SSW,203,0.7,2.0,87,0.00,,,0.01,WUHU216HW,2013-02-09 05:20:00,
2013-02-08 21:25:00,40.9,37.3,30.22,SSW,203,2.0,2.0,87,0.00,,,0.01,WUHU216HW,2013-02-09 05:25:00,
2013-02-08 21:30:00,40.9,37.5,30.22,SSW,203,1.8,2.5,88,0.00,,,0.01,WUHU216HW,2013-02-09 05:30:00,
2013-02-08 21:35:00,40.7,37.4,30.22,SSW,203,2.5,2.5,88,0.00,,,0.01,WUHU216HW,2013-02-09 05:35:00,
2013-02-08 21:40:00,40.7,37.4,30.23,SSW,203,2.9,3.4,88,0.00,,,0.01,WUHU216HW,2013-02-09 05:40:00,
2013-02-08 21:45:00,40.7,37.4,30.23,South,180,1.6,3.4,88,0.00,,,0.01,WUHU216HW,2013-02-09 05:45:00,
2013-02-08 21:50:00,40.7,37.4,30.23,South,180,1.1,3.4,88,0.00,,,0.01,WUHU216HW,2013-02-09 05:50:00,
2013-02-08 21:55:00,40.7,37.4,30.23,SSE,158,0.7,1.8,88,0.00,,,0.01,WUHU216HW,2013-02-09 05:55:00,
2013-02-08 22:00:00,40.7,37.4,30.23,SSE,158,1.1,1.8,88,0.00,,,0.01,WUHU216HW,2013-02-09 06:00:00,
2013-02-08 22:05:00,40.7,37.4,30.23,SSE,158,1.3,1.3,88,0.00,,,0.01,WUHU216HW,2013-02-09 06:05:00,
2013-02-08 22:10:00,40.7,37.4,30.23,SSW,203,2.2,2.2,88,0.00,,,0.01,WUHU216HW,2013-02-09 06:10:00,
2013-02-08 22:15:00,40.5,37.2,30.23,SSW,203,1.6,2.2,88,0.00,,,0.01,WUHU216HW,2013-02-09 06:15:00,
2013-02-08 22:20:00,40.5,37.5,30.23,SSW,203,2.5,2.5,89,0.00,,,0.01,WUHU216HW,2013-02-09 06:20:00,
2013-02-08 22:25:00,40.5,37.5,30.23,SSW,203,0.4,2.5,89,0.00,,,0.01,WUHU216HW,2013-02-09 06:25:00,
2013-02-08 22:30:00,40.5,37.5,30.23,SSW,203,0.4,2.5,89,0.00,,,0.01,WUHU216HW,2013-02-09 06:30:00,